Location: ??????? ?????????
(53.0727°N, 54.0344°E)
Time: 15:05:09
(UTC+00:00)

Daily predictions for brighter satellites

Satellite Brightness Start Highest point End
(mag) Time Altitude Azimuth Time Altitude Azimuth Time Altitude Azimuth
Cosmos 2344 3.9 13:01:03 10° SSW 13:08:13 51° ESE 13:16:09 10° NE
ATLAS 5 CENTAUR R/B 2.4 13:03:31 10° NW 13:08:49 55° NE 13:14:59 10° ESE
Cosmos 1437 2.7 13:07:01 10° N 13:10:04 53° ENE 13:13:04 10° SSE
Okean-O 3.3 13:06:09 10° SE 13:10:08 34° ENE 13:14:09 10° N
Cosmos 841 Rocket 4.2 13:05:01 10° SW 13:10:12 56° WNW 13:15:25 10° NNE
SeaSat 1 2.6 13:05:46 10° SE 13:10:36 56° NE 13:15:26 10° NNW
FENGYUN 3A 4.4 13:06:55 10° S 13:12:17 62° WSW 13:17:43 10° NNW
CENTAUR R/B 3.5 13:06:53 10° W 13:13:12 45° NNW 13:20:34 10° NE
Cosmos 2221 3.4 13:09:51 10° SSE 13:13:33 28° E 13:17:17 10° NNE
Cosmos 1842 Rocket 4.1 13:12:45 10° SSE 13:16:58 41° E 13:21:11 10° NNE
Cosmos 2278 Rocket 4.3 13:14:53 10° WNW 13:18:23 16° NNW 13:21:54 10° NNE
Cosmos 1892 4.2 13:15:00 10° NNW 13:18:34 41° W 13:22:08 10° SSW
Cosmos-2242 3.6 13:20:48 10° SSW 13:25:00 59° WNW 13:29:14 10° N
Cosmos 1867 4.4 13:20:58 10° S 13:25:49 34° ESE 13:30:44 10° NE
ASTEX 1 3.4 13:21:34 10° N 13:26:36 75° E 13:31:36 10° S
ATLAS 3B R/B 3.5 13:22:46 10° W 13:29:01 40° NNW 13:35:17 10° NE
AQUARIUS 4.1 13:25:12 10° SSE 13:29:40 69° ENE 13:34:09 10° N
Cosmos 1656 Rocket 3.7 13:24:56 10° SSW 13:30:27 81° WNW 13:35:57 10° NNE
Cosmos 1408 3.4 13:27:11 10° NNW 13:30:44 56° W 13:34:15 10° S
Ariane Rocket 4.5 13:28:26 10° E 13:31:36 17° NE 13:34:47 10° NNE
Cosmos 2123 Rocket 4.0 13:26:15 10° S 13:32:27 74° E 13:38:38 10° NNE
Cosmos 1743 Rocket 3.5 13:28:53 10° N 13:33:15 78° ENE 13:37:36 10° SSE
Cosmos 1805 Rocket 4.1 13:29:40 10° N 13:33:43 36° ENE 13:37:45 10° SE
GEOS 3 Rocket 4.1 13:31:04 10° NE 13:36:04 45° SE 13:41:05 10° SSW
Cosmos 1725 Rocket 4.2 13:29:47 10° NNW 13:36:08 80° W 13:42:28 10° S
NOAA 12 4.2 13:32:54 10° SSE 13:38:09 60° ENE 13:43:25 10° N
ALOS 4.3 13:37:51 10° SSW 13:42:03 33° W 13:46:17 10° NNW
Okean O Rocket 3.6 13:38:18 10° SSW 13:42:17 33° W 13:46:17 10° NNW
Cosmos 2219 3.2 13:37:50 10° NNW 13:43:31 84° ENE 13:49:09 10° SSE
Cosmos 1340 Rocket 3.1 13:40:53 10° SSW 13:44:54 72° WNW 13:48:59 10° N
Cosmos 1825 3.2 13:44:31 10° NNW 13:48:11 49° W 13:51:51 10° S
CZ-4 R/B 2.0 13:45:33 10° SE 13:49:22 36° ENE 13:53:08 10° N
SMAP 3.3 13:46:12 10° S 13:50:51 74° WSW 13:55:32 10° NNW
Cosmos 2369 Rocket 3.5 13:47:02 10° WSW 13:52:11 36° NW 13:57:21 10° NNE
Cosmos 1238 Rocket 3.1 13:48:32 10° N 13:53:33 90° WSW 13:57:35 10° S
Cosmos 1869 4.0 13:50:54 10° SSE 13:54:26 32° E 13:57:59 10° NNE
Cosmos 1500 Rocket 3.9 13:54:16 10° NNW 13:58:40 68° W 14:03:00 10° S
CZ-2D R/B 4.4 13:58:43 20° E 13:59:48 23° ENE 14:02:54 10° N
Cosmos 1607 4.0 13:54:31 10° NW 14:00:45 87° SW 14:07:02 10° SE
Cosmos 1633 Rocket 3.6 14:00:44 10° N 14:04:46 34° ENE 14:08:48 10° SE
FengYun 1-2 T 4.2 13:59:27 10° SSE 14:04:55 64° ENE 14:10:22 10° N
CSL-04 Rocket 3.8 14:00:31 10° SE 14:05:39 49° ENE 14:10:46 10° N
Cosmos 2227 Rocket 2.1 14:00:29 10° NNW 14:06:13 80° ENE 14:11:53 10° SE
Cosmos 783 Rocket 4.5 14:01:14 10° SSW 14:06:32 80° ESE 14:11:54 10° NNE
Cosmos 2297 Rocket 2.1 14:01:00 10° NNW 14:06:43 85° ENE 14:12:23 10° SSE
Cosmos 1939 Rocket 3.9 14:05:55 21° E 14:07:23 27° ENE 14:10:53 10° N
COBE Rocket 3.8 14:03:23 10° NNE 14:08:16 66° E 14:12:58 10° S
USA 215 3.3 14:02:36 14° ESE 14:08:24 80° NNE 14:14:59 10° WNW
COSMO-SKYMED 1 3.0 14:06:07 10° NNE 14:10:12 38° E 14:14:15 10° SSE
Cosmos 1633 2.8 14:09:19 10° N 14:12:51 44° ENE 14:16:22 10° SSE
Cosmos 1666 Rocket 3.7 14:10:05 10° N 14:14:23 48° ENE 14:18:36 10° SSE
Meteor 2-2 Rocket 4.2 14:08:53 10° S 14:14:41 67° E 14:20:25 10° NNE
USA 229 DEB 4.1 14:09:35 10° S 14:15:38 40° ESE 14:19:31 22° ENE
USA 229 4.1 14:09:44 10° S 14:15:45 40° ESE 14:19:34 22° ENE
Cosmos 1455 4.4 14:17:07 10° SW 14:20:20 26° WNW 14:23:34 10° N
Cosmos 2034 Rocket 4.2 14:14:48 10° N 14:20:59 51° ENE 14:27:09 10° SSE
Sich 1 2.9 14:16:48 10° N 14:21:09 72° ENE 14:25:30 10° SSE
NOSS 3-1 (A) 4.3 14:16:40 10° SSE 14:21:11 25° ESE 14:22:13 24° E
NOSS 3-1 (C) 3.9 14:17:18 10° S 14:22:25 37° ESE 14:25:05 26° ENE
BREEZE-M DEB (TANK) 3.1 14:18:38 10° WSW 14:26:49 54° S 14:28:14 31° ESE
Envisat 3.2 14:21:54 10° S 14:26:58 74° WSW 14:32:05 10° NNW
Meteor 1-27 4.4 14:23:00 10° SSW 14:28:40 79° WNW 14:34:27 10° NNE
Cosmos 1943 Rocket 4.1 14:27:29 10° W 14:31:53 23° NNW 14:36:22 10° NNE
NOSS 7 (D) 3.7 14:29:07 10° SW 14:31:58 80° SE 14:31:58 80° SE
YAOGAN 6 2.4 14:28:30 10° SSE 14:32:01 85° WSW 14:35:32 10° NNW
Cosmos 2082 3.6 14:26:44 10° NNW 14:32:25 80° ENE 14:38:02 10° SE
Cosmos 2263 Rocket 3.1 14:28:17 10° NNW 14:33:03 28° NE 14:33:54 27° NE
SKYMED 3 4.5 14:30:04 10° NNE 14:34:23 63° ESE 14:38:41 10° S
Cosmos 1371 Rocket 4.3 14:30:04 10° NNW 14:35:05 44° NE 14:36:42 34° E
Cosmos 1862 3.1 14:34:57 10° N 14:38:56 71° ENE 14:42:54 10° SSE
Meteor 2-11 Rocket 4.4 14:33:30 10° N 14:39:35 64° ENE 14:45:40 10° SSE
YAOGAN 1 2.5 14:39:08 10° SSE 14:43:29 89° NE 14:47:50 10° NNW
Cosmos 1634 Rocket 4.5 14:38:34 10° N 14:44:17 36° ENE 14:45:08 35° E
Cosmos 1470 Rocket 3.8 14:40:43 10° N 14:45:05 47° ENE 14:45:10 47° ENE
Tsikada Rocket 4.4 14:39:37 10° SSE 14:45:25 39° E 14:51:17 10° NNE
CZ-3B R/B 2.7 14:43:35 10° W 14:46:00 73° NW 14:46:00 73° NW
Okean-O 4.3 14:42:31 10° SSW 14:46:37 36° W 14:50:44 10° NNW
Genesis I 3.1 14:43:42 10° SW 14:47:43 82° SE 14:48:24 60° NE
SeaSat 1 4.3 14:43:59 10° S 14:48:21 31° WSW 14:52:45 10° NW
Cosmos 1697 Rocket 3.3 14:43:50 10° S 14:48:30 35° ESE 14:48:30 35° ESE
Cosmos 2221 4.0 14:46:59 10° SW 14:51:00 37° WNW 14:55:05 10° N
Geosat 4.2 14:47:46 18° NNE 14:51:30 71° NW 14:56:30 10° SW
ATLAS 5 CENTAUR R/B 3.2 14:48:10 10° NW 14:53:36 49° SW 14:59:50 10° SSE
USA 116 3.9 14:55:25 41° NNE 14:56:55 69° ESE 15:01:44 10° S
SKYMED 2 3.6 14:54:24 12° NNE 14:58:29 80° WNW 15:02:49 10° SSW
Cosmos 1356 Rocket 3.6 14:56:26 10° SSW 15:00:35 73° WNW 15:03:22 21° N
Cosmos 1680 Rocket 4.5 14:56:27 10° S 14:59:31 30° SSE 14:59:31 30° SSE
USA 238 DEB 4.3 14:57:41 10° NW 15:04:19 42° NNE 15:06:20 35° NE
USA 238 4.3 14:57:47 10° NW 15:04:25 42° NNE 15:06:25 35° NE
Cosmos 2278 Rocket 4.3 15:02:27 10° NNW 15:05:01 13° N 15:06:13 12° NNE
Lacrosse 4 Rocket 3.4 15:01:44 10° S 15:02:51 17° S 15:02:51 17° S
CENTAUR R/B 3.7 14:58:57 10° WNW 15:05:35 39° N 15:08:32 29° NE
H-2A R/B 3.2 15:09:56 30° NNE 15:09:56 30° NNE 15:13:10 10° N
Cosmos 1867 3.9 15:03:47 10° WSW 15:09:12 63° NW 15:11:27 35° NNE
Ariane Rocket 2.8 15:07:57 40° SSE 15:09:48 77° ENE 15:14:55 10° NNW
Cosmos 724 4.2 15:04:17 10° NW 15:10:12 87° SW 15:12:17 42° SE
Cosmos 1464 Rocket 4.4 15:05:07 10° NNW 15:11:13 62° W 15:17:15 10° S
NOSS 3-2 (A) 4.4 15:05:50 10° NW 15:12:23 43° NNE 15:14:17 37° NE
GEOS 3 Rocket 4.1 15:12:04 33° NNE 15:14:14 56° NW 15:19:21 10° WSW
ARGOS 4.3 15:18:04 29° NNE 15:18:04 29° NNE 15:21:10 10° N
Cosmos 1844 Rocket 4.3 15:13:43 10° NNW 15:17:01 20° NNE 15:17:01 20° NNE
MOS 1 4.2 15:17:46 61° ESE 15:18:23 66° ENE 15:24:01 10° NNW
NOAA 11 4.3 15:13:26 10° S 15:18:50 73° WSW 15:24:18 10° NNW
ATLAS 3B R/B 3.6 15:15:18 10° WNW 15:21:17 34° N 15:22:47 31° NNE
Cosmos 2344 4.1 15:15:05 10° WSW 15:22:34 59° NNW 15:27:44 26° NE
CZ-4 R/B 3.3 15:20:45 10° SSW 15:24:26 30° W 15:28:05 10° NNW
Cosmos 923 Rocket 4.0 15:19:46 10° SSW 15:24:25 67° SSE 15:24:25 67° SSE
Cosmos 2056 Rocket 3.3 15:22:20 10° NNW 15:27:22 84° NNE 15:27:22 84° NNE
Cosmos 1624 Rocket 3.9 15:22:18 10° NNW 15:27:41 88° ENE 15:28:00 80° SE
Cosmos 1656 3.6 15:22:55 10° SSW 15:28:29 84° WNW 15:29:32 60° NNE
CZ-2D R/B 4.4 15:34:02 43° W 15:34:02 43° W 15:37:43 10° NNW
Cosmos 2369 Rocket 4.4 15:34:46 10° NW 15:37:57 15° NNW 15:40:32 12° N
Gblst 52 Del rocket 4.3 15:34:12 10° W 15:40:55 79° S 15:41:09 77° SSE
Cosmos 1939 Rocket 4.1 15:41:49 40° WSW 15:42:10 41° W 15:46:08 10° NNW
COSMO-SKYMED 1 4.3 15:42:57 13° N 15:46:18 31° WNW 15:50:08 10° SW
Cosmos 2227 Rocket 4.5 15:45:24 10° NW 15:49:39 22° WSW 15:53:53 10° SSW
USA 215 3.7 15:49:58 42° S 15:51:41 53° SW 15:58:07 10° WNW
Cosmos 1980 Rocket 4.3 15:46:17 10° S 15:47:09 15° S 15:47:09 15° S
NOSS 3-2 (C) 4.3 15:47:25 10° NW 15:54:06 46° NNE 15:54:19 46° NNE
USA 229 DEB 3.8 15:59:39 10° WSW 16:06:18 68° NW 16:06:59 64° N
USA 229 3.8 15:59:47 10° WSW 16:06:24 69° NW 16:07:02 65° N
Cosmos 2369 4.3 16:02:15 10° SW 16:06:30 50° WSW 16:06:30 50° WSW
NOSS 3-1 (A) 3.9 16:05:27 10° SW 16:09:42 53° SW 16:09:42 53° SW
NOSS 3-1 (C) 3.7 16:07:06 10° WSW 16:12:31 64° WNW 16:12:31 64° WNW
Cosmos 2263 Rocket 3.2 16:12:01 10° NNW 16:15:37 41° NW 16:15:37 41° NW
Cosmos 1697 Rocket 4.1 16:27:10 10° SW 16:30:18 32° WSW 16:30:18 32° WSW
H-2A R/B 4.1 16:50:34 24° NW 16:50:34 24° NW 16:52:49 10° NNW
CENTAUR R/B 3.6 16:50:13 10° NW 16:55:42 48° NNW 16:55:42 48° NNW
ATLAS 3B R/B 4.1 17:06:41 10° NW 17:10:02 30° NNW 17:10:02 30° NNW
ATLAS 2AS CENTAUR R/B 4.3 22:31:23 32° NE 22:31:23 32° NE 22:36:08 10° ENE
USA 234 4.3 23:06:16 10° ENE 23:10:18 41° ENE 23:10:18 41° ENE
COSMOS 2406 4.3 23:48:24 43° ENE 23:48:24 43° ENE 23:52:50 10° NE
